RH
83 98 100 100 78 71 63 54 43 36 38 48 44 40 40 33 28 26 26 23 20 20 28 33 26 28 32 40 37 38 63 52 61 55 48 46 49 47 39 45 69 91 68 47 43
80 94 100 92 94 98 92 73 65 72 80 74 70 66 45 32 24 28 29 22 20 17 19 28 23 23 24 31 45 41 41 58 59 54 52 51 51 58 54 61 66 86 76 68 54
100 100 79 92 88 83 90 100 100 99 64 33 24 22 21 24 20 22 26 24 21 20 18 22 22 20 20 23 34 47 45 46 41 47 52 66 74 68 64 70 81 93 76 70 74
83 89 100 100 100 100 100 90 49 42 34 22 18 16 12 15 16 21 17 19 17 20 17 18 21 22 21 22 24 28 60 53 37 36 46 56 79 87 73 65 79 100 92 71 69
100 100 100 100 96 82 68 58 45 32 23 17 16 12 10 10 13 12 13 14 17 18 18 18 18 19 21 22 23 32 32 39 41 32 40 47 56 80 96 72 67 72 100 92 75
100 90 88 90 74 67 54 35 24 20 18 16 13 10 8 12 11 11 13 15 16 16 16 17 16 20 18 21 23 28 26 25 41 43 32 38 45 54 82 92 79 72 76 99 88
89 99 87 66 50 39 30 23 18 15 15 15 11 11 9 15 12 13 11 12 14 18 18 18 16 15 18 18 22 23 26 28 29 58 46 32 34 44 56 71 80 84 91 86 95
98 76 56 35 30 24 22 19 17 18 16 13 11 9 11 14 14 13 11 12 13 14 15 15 14 14 16 18 18 19 22 25 30 34 58 42 35 37 47 52 64 72 65 91 94
56 52 38 30 24 22 20 18 18 15 15 12 9 10 12 11 12 12 11 12 12 14 14 14 15 16 16 17 17 17 19 23 30 28 29 44 48 37 40 46 50 56 70 70 66
47 40 32 28 21 17 18 16 16 14 14 10 9 11 10 9 10 10 10 9 11 12 13 15 15 15 16 18 18 20 20 24 22 26 27 31 45 47 34 36 41 46 46 61 72
37 34 27 21 18 19 16 16 16 15 14 8 9 10 9 8 8 9 9 9 10 11 12 13 14 16 16 18 17 16 13 16 20 22 26 32 34 52 40 36 35 41 45 45 50
48 33 23 24 21 17 15 13 12 12 14 11 9 7 9 9 9 9 8 8 9 11 12 13 15 15 14 14 15 16 19 21 20 21 22 25 28 36 50 45 35 37 40 42 42
47 26 26 24 19 17 15 12 12 12 11 10 10 8 10 12 11 10 10 9 9 10 11 11 13 15 15 14 15 15 15 16 17 18 22 23 27 31 38 48 43 40 36 38 39
47 31 24 22 20 18 16 13 13 12 12 11 10 11 11 13 12 11 12 12 11 11 11 12 13 16 15 16 16 15 15 16 15 15 18 20 22 30 33 43 47 44 36 34 33
50 34 23 18 20 17 16 13 12 11 12 11 11 10 10 11 12 12 12 12 13 12 13 14 12 13 16 18 16 15 15 16 17 16 16 18 21 29 31 34 40 39 33 31 28
40 38 23 24 22 17 16 14 12 12 12 11 10 9 9 9 10 10 11 12 13 13 14 14 14 14 14 16 17 17 16 15 15 18 16 21 21 30 28 27 28 27 25 25 25
40 46 27 23 23 18 17 14 13 14 12 10 10 9 10 10 9 10 9 10 11 13 14 15 15 15 15 15 17 18 17 16 15 16 23 25 25 27 26 24 23 21 21 21 23
50 36 28 25 21 18 17 15 14 13 11 10 10 10 10 10 10 10 11 11 12 12 13 16 16 15 15 16 16 17 19 19 17 16 16 17 18 17 17 19 20 19 19 19 20
62 51 33 26 22 18 17 15 14 12 11 10 10 10 11 10 8 10 11 11 12 12 13 15 16 16 16 15 16 18 18 19 18 18 17 17 17 16 18 19 17 18 20 22 21
70 65 34 29 24 18 17 15 14 12 11 11 10 10 10 9 8 9 10 10 12 13 13 15 17 17 17 17 17 18 17 18 18 19 19 19 18 17 16 16 18 18 17 17 17
89 64 39 31 22 19 17 14 13 12 12 10 10 10 11 9 9 9 10 10 11 13 14 16 18 19 18 18 18 18 18 19 18 18 18 18 18 17 16 15 15 14 14 14 13
68 56 34 29 20 19 17 14 13 13 12 10 10 11 11 10 11 11 13 12 11 12 16 16 15 15 17 17 19 19 19 19 18 18 18 18 18 17 14 14 15 15 14 14 13
79 51 26 26 21 18 16 13 12 13 12 10 11 10 11 11 11 11 12 13 12 13 16 16 17 15 16 20 21 21 20 19 18 18 18 18 17 15 15 15 15 14 13 12 12
66 42 25 22 20 17 15 12 12 14 12 11 11 10 10 11 11 12 12 12 14 14 14 16 22 22 19 19 19 20 19 19 19 19 17 18 16 15 15 15 15 13 12 12 11
68 37 21 19 19 16 14 12 12 13 12 11 11 9 10 10 12 12 11 12 12 9 10 12 17 19 20 19 19 19 19 20 20 18 19 15 16 16 16 15 14 12 12 13 13
51 32 24 17 18 15 14 11 12 13 12 11 10 9 10 10 11 12 10 11 12 11 11 11 13 16 18 18 18 18 20 20 17 16 16 16 17 18 16 15 14 13 12 11 11
34 26 19 17 17 16 13 11 12 12 11 11 10 9 9 10 12 11 11 11 12 14 14 13 12 13 16 18 18 17 18 17 15 15 17 18 16 13 12 11 11 10 10 10 9
Wind_Speed
63 64 67 67 67 73 79 83 85 83 82 82 85 87 89 91 91 87 86 93 89 86 82 84 81 79 73 68 69 67 69 70 73 75 77 74 71 69 66 62 62 58 54 55 59
66 69 71 75 80 84 87 89 90 89 90 92 96 101 102 101 93 87 91 92 90 85 85 84 85 82 83 77 73 71 64 71 74 74 75 77 75 72 69 67 66 66 61 58 59
72 74 78 81 85 88 92 95 96 98 104 103 97 94 91 87 90 88 91 90 93 88 86 87 84 81 85 86 76 77 70 75 77 76 74 74 74 73 73 70 69 70 66 63 63
77 79 81 85 88 94 98 105 108 109 108 103 89 85 81 80 81 85 93 98 94 90 88 87 86 83 84 85 87 83 81 80 78 81 78 75 74 76 75 76 74 72 71 70 68
78 81 87 91 96 101 105 108 112 107 99 97 87 81 69 67 69 84 89 95 96 95 91 89 88 89 90 87 89 82 85 86 80 81 85 81 80 78 80 79 79 77 74 72 72
86 90 93 98 102 107 111 110 103 99 89 87 81 75 61 68 73 70 74 78 92 98 94 92 91 92 90 90 88 88 88 90 85 83 85 87 87 82 79 84 81 79 78 77 75
88 92 97 105 111 111 104 102 96 90 85 81 80 76 65 78 73 72 69 74 78 90 93 94 96 96 94 93 93 87 91 86 91 86 89 90 89 82 87 85 83 82 83 82 82
90 97 106 106 106 102 98 96 93 87 87 86 82 73 68 75 75 72 70 71 73 80 87 92 95 102 98 96 95 91 92 91 87 93 94 93 85 87 92 88 85 84 85 84 84
99 103 102 104 104 99 91 87 87 87 85 85 77 70 69 66 66 71 67 69 70 73 79 84 84 90 101 99 98 96 93 94 92 95 97 96 91 95 94 91 89 87 87 88 86
95 96 97 98 97 90 83 81 83 83 83 81 71 68 69 63 62 66 65 66 66 70 73 77 80 82 90 100 98 101 102 98 102 99 97 95 94 99 97 94 93 91 88 88 89
90 95 88 89 88 85 79 78 77 78 81 75 72 62 64 57 60 60 62 59 63 65 69 73 74 70 78 85 94 102 104 103 100 100 96 97 100 102 100 95 94 95 92 91 91
94 93 87 90 88 83 80 75 75 70 62 69 64 60 55 44 51 55 56 53 57 62 68 71 69 75 79 79 79 86 94 89 96 102 104 98 99 104 102 100 99 97 98 97 95
100 94 91 89 87 84 78 75 70 67 64 63 54 49 45 42 43 50 50 49 53 59 62 63 69 73 74 71 71 76 79 86 94 101 103 101 97 99 105 105 105 102 103 102 103
103 98 91 86 83 81 77 71 67 66 63 56 49 43 40 42 43 44 47 46 48 52 57 60 65 70 69 68 71 73 76 81 86 93 103 102 101 99 101 108 108 106 107 107 108
104 101 93 84 80 78 74 69 64 61 59 52 47 45 41 41 43 45 45 45 46 47 50 60 62 66 67 74 73 74 74 76 80 85 95 102 102 101 103 106 110 110 110 111 113
104 104 94 89 85 79 76 72 64 56 54 52 47 42 39 38 40 43 45 45 46 43 49 52 58 61 64 69 71 72 72 72 74 74 89 96 98 95 98 103 108 110 110 113 114
106 104 98 91 85 79 75 71 64 54 52 48 42 37 36 34 35 40 42 44 46 45 47 50 54 59 63 63 66 70 71 71 70 68 69 83 90 87 92 100 105 106 109 109 108
111 108 100 93 88 80 76 69 63 55 50 43 37 32 31 29 29 33 34 38 44 46 46 46 48 54 59 62 64 67 68 68 68 66 65 71 74 78 88 94 98 97 97 100 101
110 110 105 98 91 83 77 68 62 56 49 39 32 27 25 27 24 25 30 33 40 46 46 46 46 49 52 57 60 61 62 66 67 68 68 69 69 72 78 81 85 86 87 94 97
116 115 106 100 91 85 77 66 60 52 43 36 31 25 25 27 24 23 27 26 33 42 46 44 44 47 49 50 54 57 60 59 60 61 64 67 71 72 71 72 74 77 81 84 85
117 115 106 102 88 84 76 66 57 48 39 33 30 25 22 24 24 22 23 26 28 34 39 44 46 45 45 49 51 54 55 55 57 57 61 65 66 68 68 69 70 69 70 74 77
114 112 103 99 88 78 74 64 53 43 38 30 28 23 19 19 20 19 21 24 26 26 36 44 47 45 46 46 47 49 51 52 52 54 56 57 59 62 63 63 64 67 69 73 77
113 111 101 93 87 78 70 60 51 40 35 29 25 19 16 16 17 18 21 25 26 26 28 34 42 45 45 45 45 46 46 47 47 47 50 50 54 53 52 51 53 58 62 66 71
112 109 102 91 84 75 69 56 47 39 32 27 22 16 16 16 16 18 20 23 27 28 30 29 32 42 45 45 44 43 43 41 41 43 44 45 45 43 44 47 51 56 59 61 61
112 109 98 86 84 73 65 52 42 34 29 25 20 15 15 15 15 18 20 22 26 27 28 30 35 38 43 45 44 42 40 38 39 39 39 39 39 40 45 49 52 52 48 44 43
109 105 98 85 78 72 62 47 39 32 27 23 19 15 14 15 16 18 17 19 22 23 23 27 30 31 35 42 43 41 39 38 38 35 37 36 41 41 45 41 41 38 34 33 34
103 99 93 82 78 67 56 43 36 29 25 21 18 16 13 15 16 18 17 17 18 19 20 22 24 28 32 36 40 42 41 39 35 33 36 37 36 37 29 29 26 26 27 27 27
Wind_Direction
302 301 298 295 291 291 292 292 291 290 289 288 288 288 285 283 279 273 270 261 260 257 253 254 250 250 248 240 239 241 242 241 240 242 243 242 242 243 243 242 243 241 235 237 240
300 298 296 295 294 293 291 289 290 288 287 285 285 284 283 280 272 267 264 264 261 253 252 248 248 248 245 243 241 236 238 242 240 239 241 241 241 241 242 241 241 240 236 236 238
298 294 296 294 293 293 292 290 288 286 286 286 286 282 277 272 270 262 259 256 257 254 247 246 244 244 245 243 239 239 237 238 241 240 238 239 240 238 239 239 239 238 237 235 237
298 298 295 293 292 292 291 290 291 293 293 292 288 281 276 266 264 257 255 252 252 251 246 244 239 241 240 240 240 239 239 240 240 240 240 238 239 239 238 237 236 235 235 237 236
297 294 295 293 292 290 290 291 293 293 294 292 288 282 277 265 265 256 255 251 250 249 246 243 242 238 236 237 236 237 238 237 238 238 238 239 236 237 237 237 237 235 235 236 238
297 297 295 294 294 293 295 297 297 297 295 292 289 287 281 284 270 262 253 248 250 246 245 243 241 240 237 233 233 232 235 237 237 235 237 238 238 236 238 237 236 236 236 235 237
299 298 298 298 298 298 299 301 302 301 298 294 291 291 292 282 276 270 259 250 249 243 242 243 241 240 239 234 229 230 231 234 234 235 235 236 238 238 238 235 235 235 235 235 234
301 302 302 301 299 302 304 304 304 302 300 296 294 294 290 281 275 267 260 253 247 242 241 241 241 239 238 236 230 229 229 231 234 234 235 233 234 235 237 237 234 235 236 236 237
304 304 305 303 302 305 307 304 303 301 299 295 297 296 287 279 273 267 261 254 247 245 242 240 240 238 235 235 236 233 229 230 235 234 232 232 233 234 236 236 236 235 235 236 236
309 310 308 306 307 309 307 307 304 302 299 298 298 292 285 280 270 265 261 257 251 245 242 241 237 234 235 235 235 235 232 230 229 232 232 229 230 236 234 236 237 237 237 236 236
314 316 316 314 314 314 312 309 306 303 301 301 297 290 283 275 268 261 258 252 248 244 239 237 235 236 232 230 231 234 232 228 229 233 232 229 226 232 235 235 238 238 238 238 238
322 323 321 321 317 317 315 310 307 301 299 298 297 292 283 274 266 262 257 250 245 241 237 235 232 231 231 231 230 231 231 232 233 232 230 229 229 228 233 236 235 236 238 238 238
327 326 326 324 321 321 318 313 310 307 307 302 297 288 285 279 268 264 259 250 245 242 239 238 234 232 231 231 230 228 229 232 232 231 229 231 233 233 231 234 235 236 236 237 238
327 329 327 326 325 324 320 317 315 313 309 303 298 290 283 275 270 263 258 250 246 241 237 236 235 235 233 231 230 229 229 232 231 233 231 233 231 234 234 234 236 237 236 237 239
327 332 328 328 327 326 324 320 319 316 309 304 299 292 283 273 265 259 255 251 244 240 235 234 231 232 230 229 227 228 228 230 230 232 230 232 231 234 235 234 235 237 237 237 239
328 331 329 333 332 330 327 325 323 319 309 306 302 294 284 271 260 254 251 246 244 238 233 233 231 230 231 230 228 229 228 229 231 233 231 230 231 232 236 238 237 237 238 239 239
329 329 330 335 333 332 330 328 324 319 312 310 304 295 284 269 257 252 247 241 240 233 232 232 229 227 228 228 229 229 228 228 229 230 230 231 231 233 239 240 239 240 240 241 242
329 330 332 336 332 333 332 329 325 320 315 313 304 295 281 268 252 248 240 234 231 229 230 227 230 229 227 226 227 229 230 231 230 230 229 231 231 233 237 239 241 243 243 243 244
331 331 333 335 333 333 334 330 326 320 317 313 302 294 275 264 251 240 238 231 226 225 225 223 225 226 226 227 227 227 228 230 230 230 230 231 234 234 236 238 240 241 240 241 245
328 331 332 334 334 333 333 331 327 321 317 310 301 292 272 264 253 236 237 233 227 224 223 222 222 223 224 224 224 225 226 228 229 230 231 231 233 235 236 237 237 239 240 242 244
325 328 331 332 333 332 332 331 327 323 316 307 300 295 273 258 250 239 232 232 226 223 224 220 219 221 221 222 223 224 225 226 228 228 230 231 233 235 238 237 237 238 241 244 245
325 328 331 333 331 332 330 331 326 323 313 306 301 292 272 252 245 237 228 227 227 225 218 221 221 221 221 223 222 223 224 224 225 226 228 231 233 235 238 239 237 239 241 243 244
325 328 331 333 330 331 330 330 325 322 311 305 299 282 264 250 239 233 224 217 218 217 219 222 221 221 221 221 220 221 222 223 225 226 227 229 232 235 237 237 237 238 240 241 242
325 327 331 331 330 330 329 330 324 318 310 305 294 274 254 244 239 229 225 218 212 214 213 209 215 219 221 221 222 221 222 221 221 223 226 228 232 233 233 233 233 235 237 240 242
324 325 329 330 329 330 327 326 321 316 308 301 288 272 247 238 235 222 216 218 222 222 220 213 212 214 215 218 219 220 219 217 218 220 222 225 228 227 227 229 232 235 240 244 244
323 326 329 328 328 329 325 323 319 315 306 295 281 263 241 232 228 215 214 215 221 231 224 220 215 214 214 215 215 216 215 214 216 215 219 219 220 223 228 232 238 244 244 242 241
323 329 329 328 327 328 324 322 316 313 303 290 275 253 236 224 221 207 209 213 216 222 222 220 225 217 211 212 212 211 211 212 212 210 212 214 217 226 232 236 234 227 227 230 231